Satellite: MET-2/21 Catalog number: 22782 Epoch time: 10237.42326421 Element set: 0867 Inclination: 082.5470 deg RA of node: 197.5099 deg Eccentricity: 0.0021533 Arg of perigee: 204.7679 deg Mean anomaly: 155.2443 deg Mean motion: 13.83646354 rev/day Decay rate: -2.3e-07 rev/day^2 Epoch rev: 85765 Checksum: 314
Satellite: OKEAN-4 Catalog number: 23317 Epoch time: 10237.75849576 Element set: 321 Inclination: 082.5400 deg RA of node: 288.9262 deg Eccentricity: 0.0022711 Arg of perigee: 017.4056 deg Mean anomaly: 342.7931 deg Mean motion: 14.82850547 rev/day Decay rate: 6.9e-07 rev/day^2 Epoch rev: 85676 Checksum: 313
Satellite: NOAA-14 Catalog number: 23455 Epoch time: 10237.71024022 Element set: 0173 Inclination: 098.8750 deg RA of node: 317.9585 deg Eccentricity: 0.0010057 Arg of perigee: 042.6016 deg Mean anomaly: 317.5939 deg Mean motion: 14.13791812 rev/day Decay rate: -5.0e-07 rev/day^2 Epoch rev: 80732 Checksum: 284
Satellite: NOAA-15 Catalog number: 25338 Epoch time: 10237.53429195 Element set: 0497 Inclination: 098.6245 deg RA of node: 223.2361 deg Eccentricity: 0.0009815 Arg of perigee: 229.8776 deg Mean anomaly: 130.1532 deg Mean motion: 14.24850193 rev/day Decay rate: -5.8e-07 rev/day^2 Epoch rev: 63862 Checksum: 317
Satellite: RESURS Catalog number: 25394 Epoch time: 10238.74312747 Element set: 587 Inclination: 098.3052 deg RA of node: 252.9820 deg Eccentricity: 0.0002268 Arg of perigee: 039.6861 deg Mean anomaly: 320.4471 deg Mean motion: 14.24208300 rev/day Decay rate: -5.0e-08 rev/day^2 Epoch rev: 63039 Checksum: 281
Satellite: FENGYUN1 Catalog number: 25730 Epoch time: 10237.50959298 Element set: 120 Inclination: 098.7889 deg RA of node: 200.6669 deg Eccentricity: 0.0023428 Arg of perigee: 069.0186 deg Mean anomaly: 291.3480 deg Mean motion: 14.08260895 rev/day Decay rate: 6.87e-06 rev/day^2 Epoch rev: 58144 Checksum: 330
Satellite: OKEAN-0 Catalog number: 25860 Epoch time: 10238.69252141 Element set: 82 Inclination: 097.8398 deg RA of node: 209.0227 deg Eccentricity: 0.0000893 Arg of perigee: 106.8830 deg Mean anomaly: 253.2469 deg Mean motion: 14.73657294 rev/day Decay rate: 3.2e-07 rev/day^2 Epoch rev: 59728 Checksum: 313
Satellite: NOAA-16 Catalog number: 26536 Epoch time: 10237.57098825 Element set: 0975 Inclination: 099.1700 deg RA of node: 256.6725 deg Eccentricity: 0.0011109 Arg of perigee: 139.2429 deg Mean anomaly: 220.9577 deg Mean motion: 14.12572112 rev/day Decay rate: -2.61e-06 rev/day^2 Epoch rev: 51162 Checksum: 301
Satellite: NOAA-17 Catalog number: 27453 Epoch time: 10237.69024312 Element set: 0968 Inclination: 098.4256 deg RA of node: 285.3148 deg Eccentricity: 0.0010816 Arg of perigee: 296.4925 deg Mean anomaly: 063.5148 deg Mean motion: 14.24183271 rev/day Decay rate: -7.5e-07 rev/day^2 Epoch rev: 42459 Checksum: 318
Satellite: NOAA-18 Catalog number: 28654 Epoch time: 10237.70383718 Element set: 0454 Inclination: 098.9535 deg RA of node: 183.7820 deg Eccentricity: 0.0013674 Arg of perigee: 214.9924 deg Mean anomaly: 145.0352 deg Mean motion: 14.11381840 rev/day Decay rate: 1.27e-06 rev/day^2 Epoch rev: 27124 Checksum: 304
Satellite: NOAA-19 Catalog number: 33591 Epoch time: 10237.70707380 Element set: 0652 Inclination: 098.7909 deg RA of node: 178.3603 deg Eccentricity: 0.0015167 Arg of perigee: 091.7495 deg Mean anomaly: 268.5415 deg Mean motion: 14.11076178 rev/day Decay rate: -1.85e-06 rev/day^2 Epoch rev: 07971 Checksum: 330
/EX SB KEPS @ AMSAT $ORB10238.M Orbital Elements 10238.MISC
HR AMSAT ORBITAL ELEMENTS FOR MANNED AND MISCELLANEOUS SATELLITES FROM WA5QGD FORT WORTH,TX August 26, 2010 Send Subscribe/unsubscribe to KEPS at http://www.amsat.org/mailman/listinfo/keps BID: ORB10238.M TO ALL RADIO AMATEURS BT
Satellite: HUBBLE Catalog number: 20580 Epoch time: 10238.12944327 Element set: 634 Inclination: 028.4677 deg RA of node: 143.2399 deg Eccentricity: 0.0003640 Arg of perigee: 221.6409 deg Mean anomaly: 138.3923 deg Mean motion: 15.01021892 rev/day Decay rate: 4.09e-06 rev/day^2 Epoch rev: 91527 Checksum: 280
Satellite: ISS Catalog number: 25544 Epoch time: 10238.83028510 Element set: 776 Inclination: 051.6453 deg RA of node: 229.1315 deg Eccentricity: 0.0007611 Arg of perigee: 298.4323 deg Mean anomaly: 130.7842 deg Mean motion: 15.71273119 rev/day Decay rate: 1.1443e-04 rev/day^2 Epoch rev: 67458 Checksum: 286
Satellite: CO-58 Catalog number: 28895 Epoch time: 10238.23310128 Element set: 665 Inclination: 098.0049 deg RA of node: 120.3534 deg Eccentricity: 0.0019096 Arg of perigee: 066.8453 deg Mean anomaly: 293.4740 deg Mean motion: 14.59923853 rev/day Decay rate: 6.0e-07 rev/day^2 Epoch rev: 25720 Checksum: 312
Satellite: FALCON Catalog number: 30776 Epoch time: 10238.66029448 Element set: 900 Inclination: 035.4348 deg RA of node: 336.4022 deg Eccentricity: 0.0001066 Arg of perigee: 013.2516 deg Mean anomaly: 346.8228 deg Mean motion: 15.03781811 rev/day Decay rate: 6.35e-06 rev/day^2 Epoch rev: 19067 Checksum: 277
Satellite: MAST Catalog number: 31126 Epoch time: 10238.57179781 Element set: 947 Inclination: 097.9323 deg RA of node: 276.9245 deg Eccentricity: 0.0095221 Arg of perigee: 007.9568 deg Mean anomaly: 352.3148 deg Mean motion: 14.53613809 rev/day Decay rate: 1.24e-06 rev/day^2 Epoch rev: 17828 Checksum: 322
Satellite: CAPE1 Catalog number: 31130 Epoch time: 10237.65793534 Element set: 0969 Inclination: 097.9339 deg RA of node: 273.3307 deg Eccentricity: 0.0103068 Arg of perigee: 019.4341 deg Mean anomaly: 341.0728 deg Mean motion: 14.52213558 rev/day Decay rate: 2.13e-06 rev/day^2 Epoch rev: 17774 Checksum: 295
Satellite: COMPASS Catalog number: 32787 Epoch time: 10238.66109067 Element set: 759 Inclination: 097.8889 deg RA of node: 302.4299 deg Eccentricity: 0.0016776 Arg of perigee: 058.0344 deg Mean anomaly: 302.2531 deg Mean motion: 14.81945686 rev/day Decay rate: 1.66e-06 rev/day^2 Epoch rev: 12593 Checksum: 336
Satellite: AAUSAT2 Catalog number: 32788 Epoch time: 10237.64456081 Element set: 0751 Inclination: 097.8889 deg RA of node: 301.5701 deg Eccentricity: 0.0016592 Arg of perigee: 062.0672 deg Mean anomaly: 298.2192 deg Mean motion: 14.82092659 rev/day Decay rate: 3.31e-06 rev/day^2 Epoch rev: 12579 Checksum: 321
Satellite: DO-64 Catalog number: 32789 Epoch time: 10238.65853929 Element set: 769 Inclination: 097.8972 deg RA of node: 303.1267 deg Eccentricity: 0.0016534 Arg of perigee: 058.2878 deg Mean anomaly: 301.9959 deg Mean motion: 14.82272690 rev/day Decay rate: 5.09e-06 rev/day^2 Epoch rev: 12594 Checksum: 365
Satellite: CO-66 Catalog number: 32791 Epoch time: 10237.14032631 Element set: 0752 Inclination: 097.8919 deg RA of node: 300.9384 deg Eccentricity: 0.0017170 Arg of perigee: 061.9043 deg Mean anomaly: 298.3957 deg Mean motion: 14.81720012 rev/day Decay rate: 4.77e-06 rev/day^2 Epoch rev: 12566 Checksum: 307
Satellite: RS-30 Catalog number: 32953 Epoch time: 10238.71839344 Element set: 987 Inclination: 082.5057 deg RA of node: 345.8182 deg Eccentricity: 0.0017828 Arg of perigee: 310.9199 deg Mean anomaly: 049.0334 deg Mean motion: 12.43007448 rev/day Decay rate: 1.0e-07 rev/day^2 Epoch rev: 10250 Checksum: 294
Satellite: TACSAT-3 Catalog number: 35001 Epoch time: 10237.92207592 Element set: 0383 Inclination: 040.4561 deg RA of node: 155.0297 deg Eccentricity: 0.0020491 Arg of perigee: 171.6889 deg Mean anomaly: 188.4273 deg Mean motion: 15.42433977 rev/day Decay rate: 4.274e-05 rev/day^2 Epoch rev: 07140 Checksum: 296
Satellite: PHARMSAT Catalog number: 35002 Epoch time: 10237.91819771 Element set: 346 Inclination: 040.4678 deg RA of node: 152.8263 deg Eccentricity: 0.0023554 Arg of perigee: 173.9066 deg Mean anomaly: 186.2053 deg Mean motion: 15.42890950 rev/day Decay rate: 3.821e-05 rev/day^2 Epoch rev: 7142 Checksum: 290
Satellite: HAWKSAT1 Catalog number: 35003 Epoch time: 10237.93239047 Element set: 0383 Inclination: 040.4590 deg RA of node: 145.3319 deg Eccentricity: 0.0021493 Arg of perigee: 194.2274 deg Mean anomaly: 165.7997 deg Mean motion: 15.46646624 rev/day Decay rate: 8.840e-05 rev/day^2 Epoch rev: 07151 Checksum: 302
Satellite: CP6 Catalog number: 35004 Epoch time: 10237.95140227 Element set: 0369 Inclination: 040.4619 deg RA of node: 143.6918 deg Eccentricity: 0.0020736 Arg of perigee: 197.9064 deg Mean anomaly: 162.1045 deg Mean motion: 15.47729921 rev/day Decay rate: 1.1169e-04 rev/day^2 Epoch rev: 07152 Checksum: 295
Satellite: AEROCUB3 Catalog number: 35005 Epoch time: 10238.80122311 Element set: 422 Inclination: 040.4696 deg RA of node: 131.8709 deg Eccentricity: 0.0020482 Arg of perigee: 229.7264 deg Mean anomaly: 130.2227 deg Mean motion: 15.56264430 rev/day Decay rate: 4.4611e-04 rev/day^2 Epoch rev: 7173 Checksum: 256
Satellite: CASTOR Catalog number: 35694 Epoch time: 10230.44082147 Element set: 655 Inclination: 051.5930 deg RA of node: 222.0149 deg Eccentricity: 0.0004218 Arg of perigee: 308.0851 deg Mean anomaly: 053.0105 deg Mean motion: 16.48877011 rev/day Decay rate: 7.179566e-02 rev/day^2 Epoch rev: 6110 Checksum: 273
Satellite: METEOR-M Catalog number: 35865 Epoch time: 10238.71702756 Element set: 597 Inclination: 098.7525 deg RA of node: 291.9898 deg Eccentricity: 0.0002519 Arg of perigee: 140.3948 deg Mean anomaly: 219.7366 deg Mean motion: 14.21831230 rev/day Decay rate: 1.76e-06 rev/day^2 Epoch rev: 4874 Checksum: 331
Satellite: RS-38 Catalog number: 35869 Epoch time: 10238.68086089 Element set: 609 Inclination: 098.7515 deg RA of node: 291.9912 deg Eccentricity: 0.0004740 Arg of perigee: 152.8299 deg Mean anomaly: 207.3085 deg Mean motion: 14.21987201 rev/day Decay rate: 1.77e-06 rev/day^2 Epoch rev: 4874 Checksum: 343
/EX